Time,TemperatureF,DewpointF,PressureIn,WindDirection,WindDirectionDegrees,WindSpeedMPH,WindSpeedGustMPH,Humidity,HourlyPrecipIn,Conditions,Clouds,dailyrainin,SoftwareType,DateUTC
2013-01-08 00:09:00,15.6,14.0,30.38,NW,305,0.0,0.0,94,0.00,,,0.00,weatherlink.com 1.10,2013-01-08 05:09:00,
2013-01-08 00:23:00,15.3,14.0,30.38,NW,305,0.0,0.0,94,0.00,,,0.00,weatherlink.com 1.10,2013-01-08 05:23:00,
2013-01-08 00:38:00,15.0,14.0,30.39,NW,305,0.0,0.0,94,0.00,,,0.00,weatherlink.com 1.10,2013-01-08 05:38:00,
2013-01-08 00:53:00,15.0,14.0,30.39,NW,305,0.0,0.0,94,0.00,,,0.00,weatherlink.com 1.10,2013-01-08 05:53:00,
2013-01-08 01:08:00,15.2,14.0,30.38,NW,305,0.0,0.0,94,0.00,,,0.00,weatherlink.com 1.10,2013-01-08 06:08:00,
2013-01-08 01:38:00,15.2,14.0,30.38,NW,305,0.0,0.0,94,0.00,,,0.00,weatherlink.com 1.10,2013-01-08 06:38:00,
2013-01-08 01:53:00,15.1,14.0,30.39,NW,305,0.0,0.0,94,0.00,,,0.00,weatherlink.com 1.10,2013-01-08 06:53:00,
2013-01-08 02:08:00,15.2,14.0,30.38,NW,305,0.0,0.0,94,0.00,,,0.00,weatherlink.com 1.10,2013-01-08 07:08:00,
2013-01-08 02:23:00,14.4,13.0,30.38,NW,305,0.0,0.0,93,0.00,,,0.00,weatherlink.com 1.10,2013-01-08 07:23:00,
2013-01-08 02:38:00,14.3,13.0,30.37,NW,305,0.0,0.0,94,0.00,,,0.00,weatherlink.com 1.10,2013-01-08 07:38:00,
2013-01-08 02:53:00,14.1,13.0,30.37,NW,305,0.0,0.0,93,0.00,,,0.00,weatherlink.com 1.10,2013-01-08 07:53:00,
2013-01-08 03:08:00,14.0,13.0,30.36,NW,305,0.0,0.0,94,0.00,,,0.00,weatherlink.com 1.10,2013-01-08 08:08:00,
2013-01-08 03:23:00,14.1,13.0,30.36,NW,305,0.0,0.0,94,0.00,,,0.00,weatherlink.com 1.10,2013-01-08 08:23:00,
2013-01-08 03:38:00,13.6,12.0,30.36,NW,305,0.0,0.0,93,0.00,,,0.00,weatherlink.com 1.10,2013-01-08 08:38:00,
2013-01-08 03:53:00,13.7,12.0,30.36,NW,305,0.0,0.0,94,0.00,,,0.00,weatherlink.com 1.10,2013-01-08 08:53:00,
2013-01-08 04:08:00,13.4,12.0,30.36,NW,305,0.0,0.0,93,0.00,,,0.00,weatherlink.com 1.10,2013-01-08 09:08:00,
2013-01-08 04:23:00,13.5,12.0,30.36,NW,305,0.0,0.0,94,0.00,,,0.00,weatherlink.com 1.10,2013-01-08 09:23:00,
2013-01-08 04:38:00,13.2,12.0,30.36,NW,305,0.0,0.0,93,0.00,,,0.00,weatherlink.com 1.10,2013-01-08 09:38:00,
2013-01-08 04:53:00,13.3,12.0,30.36,NW,305,0.0,0.0,94,0.00,,,0.00,weatherlink.com 1.10,2013-01-08 09:53:00,
2013-01-08 05:08:00,13.5,12.0,30.36,NW,305,0.0,0.0,94,0.00,,,0.00,weatherlink.com 1.10,2013-01-08 10:08:00,
2013-01-08 05:23:00,13.1,12.0,30.37,NW,305,0.0,0.0,93,0.00,,,0.00,weatherlink.com 1.10,2013-01-08 10:23:00,
2013-01-08 05:38:00,13.2,12.0,30.37,NW,305,0.0,0.0,94,0.00,,,0.00,weatherlink.com 1.10,2013-01-08 10:38:00,
2013-01-08 05:54:00,12.7,11.0,30.37,NW,305,0.0,0.0,93,0.00,,,0.00,weatherlink.com 1.10,2013-01-08 10:54:00,
2013-01-08 06:09:00,12.5,11.0,30.37,NW,305,0.0,0.0,94,0.00,,,0.00,weatherlink.com 1.10,2013-01-08 11:09:00,
2013-01-08 06:24:00,12.7,11.0,30.38,NW,305,0.0,0.0,93,0.00,,,0.00,weatherlink.com 1.10,2013-01-08 11:24:00,
2013-01-08 06:39:00,12.9,12.0,30.38,NW,305,0.0,0.0,94,0.00,,,0.00,weatherlink.com 1.10,2013-01-08 11:39:00,
2013-01-08 06:54:00,13.0,11.0,30.39,NW,305,0.0,0.0,93,0.00,,,0.00,weatherlink.com 1.10,2013-01-08 11:54:00,
2013-01-08 07:09:00,13.4,12.0,30.40,NW,305,0.0,0.0,94,0.00,,,0.00,weatherlink.com 1.10,2013-01-08 12:09:00,
2013-01-08 07:24:00,13.2,12.0,30.40,NW,305,0.0,0.0,93,0.00,,,0.00,weatherlink.com 1.10,2013-01-08 12:24:00,
2013-01-08 07:39:00,13.6,12.0,30.41,NW,305,0.0,0.0,94,0.00,,,0.00,weatherlink.com 1.10,2013-01-08 12:39:00,
2013-01-08 07:54:00,14.3,13.0,30.41,NW,305,0.0,0.0,94,0.00,,,0.00,weatherlink.com 1.10,2013-01-08 12:54:00,
2013-01-08 08:09:00,14.7,13.0,30.42,NW,305,0.0,0.0,94,0.00,,,0.00,weatherlink.com 1.10,2013-01-08 13:09:00,
2013-01-08 08:24:00,16.5,15.0,30.42,NW,305,0.0,0.0,95,0.00,,,0.00,weatherlink.com 1.10,2013-01-08 13:24:00,
2013-01-08 08:39:00,17.4,16.0,30.42,ESE,113,0.0,0.0,94,0.00,,,0.00,weatherlink.com 1.10,2013-01-08 13:39:00,
2013-01-08 08:54:00,19.4,18.0,30.42,WNW,288,0.0,0.0,95,0.00,,,0.00,weatherlink.com 1.10,2013-01-08 13:54:00,
2013-01-08 09:09:00,21.1,20.0,30.42,ESE,110,0.0,0.0,94,0.00,,,0.00,weatherlink.com 1.10,2013-01-08 14:09:00,
2013-01-08 09:24:00,23.3,22.0,30.41,SE,131,0.0,0.0,96,0.00,,,0.00,weatherlink.com 1.10,2013-01-08 14:24:00,
2013-01-08 09:39:00,26.3,25.0,30.41,ESE,109,0.0,0.0,96,0.00,,,0.00,weatherlink.com 1.10,2013-01-08 14:39:00,
2013-01-08 09:54:00,29.8,28.0,30.41,ESE,105,0.0,4.0,94,0.00,,,0.00,weatherlink.com 1.10,2013-01-08 14:54:00,
2013-01-08 10:09:00,33.9,31.0,30.41,ESE,110,0.0,3.0,87,0.00,,,0.00,weatherlink.com 1.10,2013-01-08 15:09:00,
2013-01-08 10:24:00,37.5,31.0,30.40,ENE,67,1.0,2.0,78,0.00,,,0.00,weatherlink.com 1.10,2013-01-08 15:24:00,
2013-01-08 10:39:00,39.4,31.0,30.39,East,101,0.0,7.0,71,0.00,,,0.00,weatherlink.com 1.10,2013-01-08 15:39:00,
2013-01-08 10:54:00,40.6,31.0,30.39,ESE,122,0.0,6.0,68,0.00,,,0.00,weatherlink.com 1.10,2013-01-08 15:54:00,
2013-01-08 11:09:00,41.8,31.0,30.38,SE,124,6.0,8.0,65,0.00,,,0.00,weatherlink.com 1.10,2013-01-08 16:09:00,
2013-01-08 11:25:00,42.7,31.0,30.37,East,82,1.0,8.0,64,0.00,,,0.00,weatherlink.com 1.10,2013-01-08 16:25:00,
2013-01-08 11:40:00,43.6,31.0,30.36,NE,46,2.0,8.0,62,0.00,,,0.00,weatherlink.com 1.10,2013-01-08 16:40:00,
2013-01-08 11:55:00,44.3,31.0,30.35,ESE,113,3.0,6.0,61,0.00,,,0.00,weatherlink.com 1.10,2013-01-08 16:55:00,
2013-01-08 12:10:00,44.8,31.0,30.34,WSW,248,2.0,6.0,60,0.00,,,0.00,weatherlink.com 1.10,2013-01-08 17:10:00,
2013-01-08 12:25:00,44.7,32.0,30.33,WNW,293,1.0,4.0,61,0.00,,,0.00,weatherlink.com 1.10,2013-01-08 17:25:00,
2013-01-08 12:40:00,45.3,31.0,30.33,ESE,117,1.0,4.0,58,0.00,,,0.00,weatherlink.com 1.10,2013-01-08 17:40:00,
2013-01-08 12:55:00,45.6,31.0,30.32,ENE,68,0.0,9.0,58,0.00,,,0.00,weatherlink.com 1.10,2013-01-08 17:55:00,
2013-01-08 13:10:00,45.9,31.0,30.32,ESE,103,1.0,7.0,57,0.00,,,0.00,weatherlink.com 1.10,2013-01-08 18:10:00,
2013-01-08 13:25:00,45.5,31.0,30.33,SE,129,3.0,5.0,57,0.00,,,0.00,weatherlink.com 1.10,2013-01-08 18:25:00,
2013-01-08 13:40:00,45.5,31.0,30.33,ESE,117,3.0,5.0,57,0.00,,,0.00,weatherlink.com 1.10,2013-01-08 18:40:00,
2013-01-08 13:55:00,45.6,31.0,30.33,West,281,1.0,5.0,56,0.00,,,0.00,weatherlink.com 1.10,2013-01-08 18:55:00,
2013-01-08 14:10:00,45.4,31.0,30.33,ESE,106,0.0,4.0,58,0.00,,,0.00,weatherlink.com 1.10,2013-01-08 19:10:00,
2013-01-08 14:25:00,45.0,30.0,30.33,West,271,0.0,5.0,57,0.00,,,0.00,weatherlink.com 1.10,2013-01-08 19:25:00,
2013-01-08 14:40:00,45.1,30.0,30.32,ESE,107,1.0,4.0,57,0.00,,,0.00,weatherlink.com 1.10,2013-01-08 19:40:00,
2013-01-08 14:55:00,45.4,30.0,30.32,SW,228,0.0,5.0,55,0.00,,,0.00,weatherlink.com 1.10,2013-01-08 19:55:00,
2013-01-08 15:10:00,45.2,30.0,30.32,East,84,1.0,6.0,55,0.00,,,0.00,weatherlink.com 1.10,2013-01-08 20:10:00,
2013-01-08 15:25:00,44.7,30.0,30.33,SE,139,0.0,6.0,56,0.00,,,0.00,weatherlink.com 1.10,2013-01-08 20:25:00,
2013-01-08 15:40:00,44.0,30.0,30.33,ESE,105,0.0,2.0,58,0.00,,,0.00,weatherlink.com 1.10,2013-01-08 20:40:00,
2013-01-08 15:55:00,42.7,30.0,30.33,West,276,0.0,0.0,60,0.00,,,0.00,weatherlink.com 1.10,2013-01-08 20:55:00,
2013-01-08 16:10:00,40.1,29.0,30.33,ESE,106,0.0,0.0,66,0.00,,,0.00,weatherlink.com 1.10,2013-01-08 21:10:00,
2013-01-08 16:25:00,37.4,29.0,30.34,ESE,104,0.0,0.0,72,0.00,,,0.00,weatherlink.com 1.10,2013-01-08 21:25:00,
2013-01-08 16:40:00,35.3,29.0,30.34,ESE,104,0.0,0.0,77,0.00,,,0.00,weatherlink.com 1.10,2013-01-08 21:40:00,
2013-01-08 16:55:00,33.7,29.0,30.35,ESE,105,0.0,0.0,82,0.00,,,0.00,weatherlink.com 1.10,2013-01-08 21:55:00,
2013-01-08 17:10:00,32.3,28.0,30.34,ESE,105,0.0,0.0,84,0.00,,,0.00,weatherlink.com 1.10,2013-01-08 22:10:00,
2013-01-08 17:25:00,31.6,28.0,30.35,ESE,105,0.0,0.0,86,0.00,,,0.00,weatherlink.com 1.10,2013-01-08 22:25:00,
2013-01-08 17:40:00,30.9,28.0,30.35,ESE,105,0.0,0.0,88,0.00,,,0.00,weatherlink.com 1.10,2013-01-08 22:40:00,
2013-01-08 17:55:00,30.6,28.0,30.35,ESE,104,0.0,0.0,90,0.00,,,0.00,weatherlink.com 1.10,2013-01-08 22:55:00,
2013-01-08 18:10:00,29.9,28.0,30.36,ESE,105,0.0,0.0,92,0.00,,,0.00,weatherlink.com 1.10,2013-01-08 23:10:00,
2013-01-08 18:25:00,29.8,28.0,30.36,ESE,105,0.0,0.0,91,0.00,,,0.00,weatherlink.com 1.10,2013-01-08 23:25:00,
2013-01-08 18:40:00,29.4,27.0,30.36,ESE,105,0.0,0.0,92,0.00,,,0.00,weatherlink.com 1.10,2013-01-08 23:40:00,
2013-01-08 18:55:00,29.4,28.0,30.36,ESE,105,0.0,0.0,93,0.00,,,0.00,weatherlink.com 1.10,2013-01-08 23:55:00,
2013-01-08 19:10:00,28.8,27.0,30.37,ESE,105,0.0,0.0,92,0.00,,,0.00,weatherlink.com 1.10,2013-01-09 00:10:00,
2013-01-08 19:25:00,28.4,26.0,30.37,ESE,105,0.0,0.0,92,0.00,,,0.00,weatherlink.com 1.10,2013-01-09 00:25:00,
2013-01-08 19:40:00,27.7,26.0,30.38,ESE,105,0.0,0.0,93,0.00,,,0.00,weatherlink.com 1.10,2013-01-09 00:40:00,
2013-01-08 19:55:00,27.6,26.0,30.38,ESE,105,0.0,0.0,94,0.00,,,0.00,weatherlink.com 1.10,2013-01-09 00:55:00,
2013-01-08 20:10:00,27.5,26.0,30.38,ESE,105,0.0,0.0,95,0.00,,,0.00,weatherlink.com 1.10,2013-01-09 01:10:00,
2013-01-08 20:25:00,27.1,26.0,30.37,ESE,105,0.0,0.0,95,0.00,,,0.00,weatherlink.com 1.10,2013-01-09 01:25:00,
2013-01-08 20:40:00,26.8,25.0,30.38,ESE,104,0.0,0.0,94,0.00,,,0.00,weatherlink.com 1.10,2013-01-09 01:40:00,
2013-01-08 20:55:00,26.9,26.0,30.38,ESE,105,0.0,0.0,95,0.00,,,0.00,weatherlink.com 1.10,2013-01-09 01:55:00,
2013-01-08 21:10:00,27.2,26.0,30.38,ESE,105,0.0,0.0,95,0.00,,,0.00,weatherlink.com 1.10,2013-01-09 02:10:00,
2013-01-08 21:25:00,27.2,26.0,30.38,ESE,105,0.0,0.0,95,0.00,,,0.00,weatherlink.com 1.10,2013-01-09 02:25:00,
2013-01-08 21:40:00,27.2,26.0,30.37,SW,215,0.0,0.0,95,0.00,,,0.00,weatherlink.com 1.10,2013-01-09 02:40:00,
2013-01-08 21:55:00,27.2,26.0,30.38,SW,215,0.0,0.0,96,0.00,,,0.00,weatherlink.com 1.10,2013-01-09 02:55:00,
2013-01-08 22:25:00,25.8,25.0,30.39,SW,215,0.0,0.0,96,0.00,,,0.00,weatherlink.com 1.10,2013-01-09 03:25:00,
2013-01-08 22:40:00,25.7,25.0,30.39,SSE,150,0.0,0.0,95,0.00,,,0.00,weatherlink.com 1.10,2013-01-09 03:40:00,
2013-01-08 22:55:00,25.3,24.0,30.39,SSE,150,0.0,0.0,96,0.00,,,0.00,weatherlink.com 1.10,2013-01-09 03:55:00,
2013-01-08 23:10:00,25.0,24.0,30.39,SSE,150,0.0,0.0,96,0.00,,,0.00,weatherlink.com 1.10,2013-01-09 04:10:00,
2013-01-08 23:25:00,24.2,23.0,30.39,SSE,151,0.0,0.0,96,0.00,,,0.00,weatherlink.com 1.10,2013-01-09 04:25:00,
2013-01-08 23:40:00,23.7,23.0,30.39,SSE,150,0.0,0.0,96,0.00,,,0.00,weatherlink.com 1.10,2013-01-09 04:40:00,
2013-01-08 23:55:00,23.0,22.0,30.39,SSE,150,0.0,0.0,96,0.00,,,0.00,weatherlink.com 1.10,2013-01-09 04:55:00,